| time (UTC) | temp F | wind direction | speed knots | gust knots | rain 1hr in | rain 24hr in | rain mn in | humidity % | barometer mb |
| 20260506061936 | 41 | 260 | 8.7 | 10.4 | 0.00 | 0.00 | 0.00 | 60 | 998.7 |
| 20260506050428 | 38 | 222 | 2.6 | 3.5 | 0.00 | 0.00 | 0.00 | 68 | 998.0 |
| 20260506044906 | 38 | 251 | 7.0 | 8.7 | 0.00 | 0.00 | 0.00 | 68 | 998.1 |
| 20260506043452 | 37 | 271 | 4.3 | 7.0 | 0.00 | 0.00 | 0.00 | 70 | 998.1 |
| 20260506040421 | 36 | 279 | 2.6 | 3.5 | 0.00 | 0.00 | 0.00 | 72 | 997.7 |
| 20260506034907 | 35 | 291 | 3.5 | 5.2 | 0.00 | 0.00 | 0.00 | 74 | 997.6 |
| 20260506033453 | 34 | 258 | 4.3 | 5.2 | 0.00 | 0.00 | 0.00 | 75 | 997.3 |
| 20260506030422 | 33 | 231 | 2.6 | 3.5 | 0.00 | 0.00 | 0.00 | 78 | 997.1 |
| 20260506024909 | 32 | 207 | 0.9 | 2.6 | 0.00 | 0.00 | 0.00 | 79 | 997.2 |
| 20260506021939 | 31 | 252 | 0.9 | 1.7 | 0.00 | 0.00 | 0.00 | 80 | 997.0 |
| 20260506020424 | 32 | 233 | 0.0 | 0.9 | 0.00 | 0.00 | 0.00 | 79 | 996.8 |
| 20260506014909 | 32 | 259 | 0.0 | 0.0 | 0.00 | 0.00 | 0.00 | 79 | 996.8 |
| 20260506013455 | 32 | 278 | 0.0 | 0.9 | 0.00 | 0.00 | 0.00 | 78 | 996.6 |
| 20260506011940 | 32 | 253 | 0.9 | 1.7 | 0.00 | 0.00 | 0.00 | 78 | 996.4 |
| 20260506010424 | 32 | 255 | 1.7 | 2.6 | 0.00 | 0.00 | 0.00 | 77 | 996.3 |
| 20260506004910 | 32 | 242 | 0.0 | 0.0 | 0.00 | 0.00 | 0.00 | 77 | 996.0 |
| 20260506003456 | 32 | 200 | 1.7 | 1.7 | 0.00 | 0.00 | 0.00 | 76 | 996.2 |
| 20260506001941 | 32 | 259 | 0.9 | 0.9 | 0.00 | 0.00 | 0.00 | 77 | 995.9 |
| 20260506000425 | 33 | 186 | 0.0 | 0.9 | 0.00 | 0.00 | 0.00 | 76 | 995.7 |
| 20260505231941 | 34 | 226 | 1.7 | 1.7 | 0.00 | 0.00 | 0.00 | 74 | 995.8 |
| 20260505230426 | 34 | 154 | 0.0 | 0.9 | 0.00 | 0.00 | 0.00 | 74 | 995.6 |
| 20260505224910 | 34 | 231 | 0.0 | 0.9 | 0.00 | 0.00 | 0.00 | 73 | 995.5 |
| 20260505223456 | 35 | 257 | 0.9 | 0.9 | 0.00 | 0.00 | 0.00 | 72 | 995.7 |
| 20260505220426 | 36 | 190 | 0.9 | 0.9 | 0.00 | 0.00 | 0.00 | 68 | 995.6 |
| 20260505214910 | 36 | 219 | 1.7 | 2.6 | 0.00 | 0.00 | 0.00 | 67 | 995.4 |
| 20260505213456 | 36 | 267 | 0.9 | 1.7 | 0.00 | 0.00 | 0.00 | 67 | 995.4 |
| 20260505211941 | 36 | 199 | 0.9 | 1.7 | 0.00 | 0.00 | 0.00 | 66 | 995.3 |
| 20260505204910 | 37 | 230 | 0.9 | 1.7 | 0.00 | 0.00 | 0.00 | 64 | 995.2 |
| 20260505203456 | 37 | 250 | 0.9 | 0.9 | 0.00 | 0.00 | 0.00 | 63 | 995.1 |
| 20260505201941 | 38 | 255 | 1.7 | 1.7 | 0.00 | 0.00 | 0.00 | 62 | 995.0 |
| 20260505200425 | 39 | 190 | 0.9 | 2.6 | 0.00 | 0.00 | 0.00 | 60 | 995.0 |
| 20260505190426 | 42 | 270 | 5.2 | 7.0 | 0.00 | 0.00 | 0.00 | 52 | 994.5 |
| 20260505184917 | 42 | 233 | 0.9 | 1.7 | 0.00 | 0.00 | 0.00 | 52 | 994.8 |
| 20260505183457 | 43 | 230 | 6.1 | 8.7 | 0.00 | 0.00 | 0.00 | 49 | 994.5 |
| 20260505181942 | 43 | 234 | 1.7 | 2.6 | 0.00 | 0.00 | 0.00 | 48 | 994.4 |
| 20260505180426 | 44 | 246 | 5.2 | 7.0 | 0.00 | 0.00 | 0.00 | 46 | 994.5 |
| 20260505174912 | 45 | 271 | 2.6 | 3.5 | 0.00 | 0.00 | 0.00 | 44 | 994.2 |
| 20260505173458 | 46 | 272 | 7.0 | 8.7 | 0.00 | 0.00 | 0.00 | 42 | 993.9 |
| 20260505170428 | 47 | 281 | 4.3 | 5.2 | 0.00 | 0.00 | 0.00 | 38 | 993.7 |
| 20260505164912 | 47 | 290 | 3.5 | 4.3 | 0.00 | 0.00 | 0.00 | 38 | 993.7 |
| 20260505160429 | 48 | 291 | 4.3 | 7.8 | 0.00 | 0.00 | 0.00 | 35 | 993.6 |
| 20260505151944 | 49 | 286 | 3.5 | 4.3 | 0.00 | 0.00 | 0.00 | 35 | 993.3 |
| 20260505150428 | 48 | 287 | 4.3 | 4.3 | 0.00 | 0.00 | 0.00 | 34 | 993.1 |
| 20260505140429 | 48 | 289 | 8.7 | 15.6 | 0.00 | 0.00 | 0.00 | 35 | 993.0 |
| 20260505123401 | 46 | 323 | 8.7 | 11.3 | 0.00 | 0.00 | 0.00 | 39 | 992.6 |
| 20260505121947 | 45 | 301 | 9.6 | 12.2 | 0.00 | 0.00 | 0.00 | 40 | 992.5 |
| 20260505120431 | 46 | 282 | 5.2 | 7.8 | 0.00 | 0.00 | 0.00 | 43 | 992.1 |
| 20260505114917 | 46 | 294 | 7.0 | 7.8 | 0.00 | 0.00 | 0.00 | 44 | 992.1 |
| 20260505113402 | 46 | 294 | 7.8 | 9.6 | 0.00 | 0.00 | 0.00 | 44 | 991.9 |
| 20260505111948 | 46 | 284 | 8.7 | 11.3 | 0.00 | 0.00 | 0.00 | 44 | 991.8 |
| 20260505101948 | 43 | 309 | 6.1 | 7.8 | 0.00 | 0.00 | 0.00 | 52 | 991.3 |
| 20260505100433 | 43 | 266 | 8.7 | 9.6 | 0.00 | 0.00 | 0.00 | 54 | 991.1 |
| 20260505094919 | 42 | 218 | 1.7 | 2.6 | 0.00 | 0.00 | 0.00 | 57 | 990.9 |
| 20260505091950 | 42 | 262 | 7.0 | 12.2 | 0.00 | 0.00 | 0.00 | 58 | 990.7 |
| 20260505084920 | 41 | 292 | 7.8 | 10.4 | 0.00 | 0.00 | 0.00 | 59 | 990.2 |
| 20260505083404 | 41 | 328 | 3.5 | 4.3 | 0.00 | 0.00 | 0.00 | 62 | 989.9 |
| 20260505081950 | 42 | 260 | 7.0 | 7.8 | 0.00 | 0.00 | 0.00 | 62 | 989.6 |
| 20260505080436 | 43 | 274 | 7.0 | 8.7 | 0.00 | 0.00 | 0.00 | 61 | 989.6 |
| 20260505073405 | 42 | 233 | 7.0 | 8.7 | 0.00 | 0.00 | 0.00 | 65 | 989.6 |
| 20260505071950 | 40 | 311 | 6.1 | 7.8 | 0.00 | 0.00 | 0.00 | 69 | 989.3 |